Weather History for Telfer, WE

Change the Weather History Date:

Friday, October 19, 2012

  Actual Average Record
Temperature  
Mean Temperature 93 °F -  
Max Temperature 107 °F - - ()
Min Temperature 79 °F - - ()
Cooling Degree Days 28    
Growing Degree Days 43 (Base 50)    
Moisture  
Dew Point 40 °F    
Average Humidity 15    
Maximum Humidity 26    
Minimum Humidity 4    
Precipitation  
Precipitation 0.00 in - - ()
Sea Level Pressure  
Sea Level Pressure 29.81 in    
Wind  
Wind Speed 8 mph ()    
Max Wind Speed 29 mph    
Max Gust Speed 41 mph    
T = Trace of Precipitation, MM = Missing Value Source: Averaged Metar Reports

Daily Weather History Graph

Daily Weather History Graph

Search for Another Location

Airport:

Trip Planner

Search our weather history database for the weather conditions in past years. The results will help you decide how hot, cold, wet, or windy it might be!

Date:

Astronomy

Oct. 19, 2012 Rise Set
Actual Time 5:16 AM AWST 5:56 PM AWST
Civil Twilight 4:53 AM AWST 6:18 PM AWST
Nautical Twilight 4:26 AM AWST 6:45 PM AWST
Astronomical Twilight 3:59 AM AWST 7:12 PM AWST
Moon 8:18 AM AWST (10/19) 10:00 PM AWST (10/19)
Length of Visible Light 13h 25m
Length of Day
12h 39m
Waxing Crescent, 18% of the Moon is Illuminated
Oct 19
Waxing Crescent
Oct 22
First Quarter
Oct 30
Full
Nov 7
Last Quarter
Nov 14
New

Hourly Weather History & Observations

Time (AWST) Temp. Dew Point Humidity Pressure Visibility Wind Dir Wind Speed Gust Speed Precip Events Conditions
12:00 AM 86 °F 44 °F 14% 29.80 in - North 2.3 mph - -  
12:00 AM 86.0 °F 44.6 °F 23% 29.83 in - North 2.3 mph - N/A   Unknown
1:00 AM 86.0 °F 42.8 °F 22% 29.83 in - West 6.9 mph - N/A   Unknown
2:00 AM 83 °F 42 °F 14% 29.76 in - West 6.9 mph - -  
2:00 AM 84.2 °F 42.8 °F 23% 29.80 in - West 6.9 mph - N/A   Unknown
3:00 AM 82 °F 42 °F 15% 29.76 in - West 5.8 mph - -  
3:00 AM 82.4 °F 42.8 °F 25% 29.80 in - West 5.8 mph - N/A   Unknown
4:00 AM 80.6 °F 42.8 °F 26% 29.83 in - ESE 2.3 mph - N/A   Unknown
5:00 AM 80 °F 43 °F 17% 29.78 in - West 8.1 mph - -  
5:00 AM 80.6 °F 42.8 °F 26% 29.83 in - West 8.1 mph - N/A   Unknown
6:00 AM 84 °F 41 °F 13% 29.80 in - South 8.1 mph - -  
6:00 AM 84.2 °F 41.0 °F 22% 29.83 in - South 8.1 mph - N/A   Unknown
7:00 AM 87.8 °F 41.0 °F 19% 29.86 in - SSE 6.9 mph - N/A   Unknown
8:00 AM 91.4 °F 41.0 °F 17% 29.89 in - South 5.8 mph - N/A   Unknown
9:00 AM 98 °F 37 °F 6% 29.83 in - ESE 13.8 mph - -  
9:00 AM 98.6 °F 37.4 °F 12% 29.86 in - ESE 13.8 mph - N/A   Unknown
10:00 AM 100.4 °F 33.8 °F 10% 29.86 in - ESE 10.4 mph - N/A   Unknown
11:00 AM 104 °F 34 °F 4% 29.79 in - ESE 13.8 mph - -  
11:00 AM 104.0 °F 33.8 °F 9% 29.83 in - ESE 13.8 mph - N/A   Unknown
12:00 PM 104 °F 34 °F 4% 29.77 in - SSE 11.5 mph - -  
1:00 PM 104.0 °F 33.8 °F 9% 29.77 in - SSE 10.4 mph 23.0 mph N/A   Unknown
2:00 PM 105 °F 35 °F 4% 29.72 in - South 12.7 mph - -  
2:00 PM 104.0 °F 33.8 °F 9% 29.77 in - South 12.7 mph - N/A   Unknown
3:00 PM 105 °F 35 °F 4% 29.71 in - ESE 11.5 mph - -  
3:00 PM 105.8 °F 35.6 °F 9% 29.74 in - ESE 11.5 mph - N/A   Unknown
4:00 PM 102.2 °F 35.6 °F 10% 29.77 in - SSE 17.3 mph - N/A   Unknown
5:00 PM 100 °F 36 °F 5% 29.74 in - South 12.7 mph - -  
5:00 PM 100.4 °F 35.6 °F 11% 29.77 in - South 12.7 mph - N/A   Unknown
5:07 PM 98.6 °F 37.4 °F 12% 29.80 in - SSW 19.6 mph 32.2 mph N/A   Unknown
5:23 PM 93.2 °F 46.4 °F 20% 29.83 in - WSW 26.5 mph - N/A   Unknown
5:24 PM 91.4 °F 48.2 °F 23% 29.83 in - WSW 28.8 mph 41.4 mph N/A   Unknown
5:59 PM 93.2 °F 44.6 °F 19% 29.86 in - West 11.5 mph - N/A   Unknown
6:00 PM 93 °F 46 °F 12% 29.81 in - NNW 6.9 mph - -  
6:00 PM 93.2 °F 46.4 °F 20% 29.86 in - NNW 6.9 mph 18.4 mph N/A   Unknown
7:00 PM 91.4 °F 44.6 °F 20% 29.86 in - NNE 6.9 mph - N/A   Unknown
8:00 PM 92 °F 43 °F 10% 29.82 in - ENE 9.2 mph - -  
8:00 PM 91.4 °F 42.8 °F 18% 29.86 in - ENE 9.2 mph - N/A   Unknown
9:00 PM 89 °F 45 °F 13% 29.82 in - NE 11.5 mph - -  
9:00 PM 89.6 °F 44.6 °F 21% 29.86 in - NE 11.5 mph - N/A   Unknown
11:00 PM 85 °F 43 °F 14% 29.80 in - East 2.3 mph - -  
11:00 PM 84.2 °F 42.8 °F 23% 29.86 in - East 2.3 mph - N/A   Unknown